This demonstration page uses our WeatherBlox Daily Observations layout. Learn more.

39.92423, -83.80882

Hourly Observations for August 5, 2020

Temp ( °F °C ) Dew Point ( °F °C ) Humidity (%) Winds ( mph kmh ) Pressure ( in mb ) Visibility ( mi km ) Precip ( " mm )
12:56 am 00:56 Clear 59 15 59 15 100 100 NW 5 7 30.07 1018 10 16.0934 0 0
1:56 am 01:56 Clear 58 14.4 58 14.4 100 100 WNW 3 6 30.07 1018 10 16.0934 0 0
2:56 am 02:56 Clear 56 13.3 56 13.3 100 100 WNW 3 6 30.07 1018 10 16.0934 0 0
3:56 am 03:56 Clear 55 12.8 55 12.8 100 100 Calm 30.08 1019 10 16.0934 0 0
4:56 am 04:56 Clear 54 12.2 54 12.2 100 100 Calm 30.08 1019 10 16.0934 0 0
5:46 am 05:46 Clear with Mist and Fog 54 12 54 12 100 100 Calm 30.1 1019 1.75 2.816345 0 0
5:56 am 05:56 Clear with Mist and Fog 54 12.2 54 12.2 100 100 Calm 30.09 1019 3 4.82802 0 0
6:56 am 06:56 Sunny with Mist and Fog 53 11.7 53 11.7 100 100 Calm 30.11 1020 4 6.43736 0 0
7:56 am 07:56 Sunny 57 13.9 57 13.9 100 100 Calm 30.12 1020 10 16.0934 0 0
8:56 am 08:56 Sunny 61 16.1 57 13.9 87 87 N 5 7 30.14 1021 10 16.0934 0 0
9:56 am 09:56 Sunny 65 18.3 56 13.3 73 73 N 6 9 30.13 1020 10 16.0934 0 0
10:56 am 10:56 Sunny 68 20 55 12.8 63 63 undefined N/A 30.14 1021 10 16.0934 0 0
11:56 am 11:56 Sunny 69 20.6 55 12.8 61 61 W 7 11 30.15 1021 10 16.0934 0 0
12:56 pm 12:56 Sunny 71 21.7 53 11.7 53 53 VRB 7 11 30.14 1021 10 16.0934 0 0
1:56 pm 13:56 Partly Cloudy 72 22.2 54 12.2 53 53 NW 6 9 30.14 1021 10 16.0934 0 0
2:56 pm 14:56 Mostly Sunny 73 22.8 54 12.2 51 51 Calm 30.13 1020 10 16.0934 0 0
3:56 pm 15:56 Mostly Cloudy 73 22.8 55 12.8 53 53 VRB 5 7 30.12 1020 10 16.0934 0 0
4:56 pm 16:56 Partly Cloudy 74 23.3 55 12.8 52 52 W 6 9 30.11 1020 10 16.0934 0 0
5:56 pm 17:56 Mostly Sunny 73 22.8 56 13.3 55 55 NNW 7 11 30.11 1020 10 16.0934 0 0
6:56 pm 18:56 Sunny 70 21.1 56 13.3 61 61 NNW 8 13 30.1 1019 10 16.0934 0 0
7:56 pm 19:56 Sunny 69 20.6 57 13.9 66 66 NNW 5 7 30.1 1019 10 16.0934 0 0
8:56 pm 20:56 Clear 65 18.3 58 14.4 78 78 NNW 3 6 30.09 1019 10 16.0934 0 0
9:56 pm 21:56 Clear 60 15.6 60 15.6 100 100 Calm 30.1 1019 10 16.0934 0 0
10:56 pm 22:56 Clear 60 15.6 57 13.9 90 90 Calm 30.11 1020 10 16.0934 0 0
11:56 pm 23:56 Clear 58 14.4 58 14.4 100 100 ESE 3 6 30.12 1020 10 16.0934 0 0

Powered by AerisWeather